Overview Statistics Trail Chart Weather Telemetry Raw packets
 

This is the latest recevied weather packets stored in our database for station/object DN9CHO-13. If no packets are shown the sender has not sent any weather packets the latest 10 day(s).

<< 32 33 34 35 36 37 38 >>
Time Temp. Humidity Pressure Rain* Wind** Luminosity Snow
1788091526 23.33° C 61% 1015.1 hPa 0 mm - 34 W/m² -
1788090922 23.33° C 60% 1015 hPa 0 mm - 33 W/m² -
1788090318 23.33° C 61% 1015.2 hPa 0 mm - 39 W/m² -
1788089735 22.78° C 62% 1015.1 hPa 0 mm - 35 W/m² -
1788089131 22.22° C 63% 1015.1 hPa 0 mm - 40 W/m² -
1788088527 22.22° C 65% 1015.2 hPa 0 mm - 59 W/m² -
1788087924 21.67° C 66% 1015.1 hPa 0 mm - 31 W/m² -
1788087320 21.67° C 67% 1015.2 hPa 0 mm - 30 W/m² -
1788086716 21.11° C 68% 1015.3 hPa 0 mm - 26 W/m² -
1788086133 21.11° C 68% 1015.3 hPa 0 mm - 26 W/m² -
1788085529 21.11° C 70% 1015.4 hPa 0 mm - 26 W/m² -
1788084925 21.11° C 70% 1015.3 hPa 0 mm - 28 W/m² -
1788084321 21.11° C 70% 1015.3 hPa 0 mm - 26 W/m² -
1788083717 20.56° C 70% 1015.3 hPa 0 mm - 24 W/m² -
1788083134 20.56° C 70% 1015.2 hPa 0 mm - 20 W/m² -
1788082529 20.56° C 70% 1015.2 hPa 0 mm - 22 W/m² -
1788081926 20.56° C 71% 1015.1 hPa 0 mm - 25 W/m² -
1788081322 20° C 72% 1015.1 hPa 0 mm - 19 W/m² -
1788080718 20° C 72% 1015 hPa 0 mm - 16 W/m² -
1788080194 20° C 72% 1014.9 hPa 0 mm - 15 W/m² -
1788079590 20° C 73% 1014.7 hPa 0 mm - 20 W/m² -
1788078986 20° C 73% 1014.9 hPa 0 mm - 16 W/m² -
1788078383 20° C 73% 1014.7 hPa 0 mm - 12 W/m² -
1788077779 20° C 72% 1014.5 hPa 0 mm - 16 W/m² -
1788077195 19.44° C 73% 1014.5 hPa 0 mm - 13 W/m² -

* Rain latest hour (hover to see other rain measurements)
** Current wind speed in m/s (hover to see current wind gust speed)